Madison, MN

11:47 AM CST on December 05, 2019 (GMT -0600)
Madison-Lac Qui Parle County

Weather History for KDXX - November, 2019

Change the Weather History Date:

Saturday, November 16, 2019

  Actual Average (KAQP) Record (KAQP)
Temperature  
Mean Temperature 43 °F -  
Max Temperature 51 °F 36 °F 69 °F (2001)
Min Temperature 35 °F 20 °F 0 °F (1997)
Degree Days  
Heating Degree Days 22    
Moisture  
Dew Point 34 °F    
Average Humidity 70    
Maximum Humidity 87    
Minimum Humidity 50    
Precipitation  
Precipitation 0.05 in - - ()
Sea Level Pressure  
Sea Level Pressure 29.96 in    
Wind  
Wind Speed 12 mph (South)    
Max Wind Speed 20 mph    
Max Gust Speed 24 mph    
Visibility 10 miles    
Events Rain    
Averages and records for this station are not official NWS values.
T = Trace of Precipitation, MM = Missing Value Source: NWS Daily Summary

Daily Weather History Graph

Daily Weather History Graph

Search for Another Location

Airport or City:

Astronomy

Nov. 16, 2019 Rise Set
Actual Time 7:23 AM CST 4:54 PM CST
Civil Twilight 6:51 AM CST 5:26 PM CST
Nautical Twilight 6:15 AM CST 6:02 PM CST
Astronomical Twilight 5:41 AM CST 6:37 PM CST
Moon 8:24 PM CST (11/16) 11:23 AM CST (11/16)
Length of Visible Light 10h 35m
Length of Day
9h 31m
Waning Gibbous, 82% of the Moon is Illuminated
Nov 16
Waning Gibbous
Nov 19
Last Quarter
Nov 26
New
Dec 4
First Quarter
Dec 11
Full

Hourly Weather History & Observations

Time (CST) Temp. Windchill Dew Point Humidity Pressure Visibility Wind Dir Wind Speed Gust Speed Precip Events Conditions
12:16 AM 35.6 °F 26.6 °F 32.0 °F 87% 30.08 in 10.0 mi SE 13.8 mph - N/A   Clear
12:35 AM 35.6 °F 26.6 °F 32.0 °F 87% 30.07 in 10.0 mi SE 13.8 mph - N/A   Clear
12:55 AM 35.6 °F 26.6 °F 32.0 °F 87% 30.06 in 10.0 mi SE 13.8 mph - N/A   Clear
12:59 AM 35.6 °F 27.1 °F 32.0 °F 87% 30.06 in 10.0 mi SE 12.7 mph - N/A   Clear
1:17 AM 35.6 °F 26.6 °F 32.0 °F 87% 30.04 in 10.0 mi SE 13.8 mph - N/A   Clear
1:36 AM 37.4 °F 28.5 °F 32.0 °F 81% 30.03 in 10.0 mi SE 15.0 mph - N/A   Clear
1:55 AM 37.4 °F 28.9 °F 33.8 °F 87% 30.03 in 10.0 mi SE 13.8 mph 19.6 mph N/A   Clear
1:56 AM 37.4 °F 28.9 °F 33.8 °F 87% 30.03 in 10.0 mi SSE 13.8 mph 19.6 mph N/A   Clear
2:19 AM 37.4 °F 28.9 °F 32.0 °F 81% 30.02 in 10.0 mi SE 13.8 mph - N/A   Clear
2:36 AM 39.2 °F 30.8 °F 33.8 °F 81% 30.02 in 10.0 mi SSE 15.0 mph - N/A   Clear
2:55 AM 37.4 °F 29.8 °F 32.0 °F 81% 30.01 in 10.0 mi SSE 11.5 mph - N/A   Clear
2:56 AM 37.4 °F 29.8 °F 32.0 °F 81% 30.01 in 10.0 mi SSE 11.5 mph - N/A   Clear
3:15 AM 37.4 °F 30.8 °F 32.0 °F 81% 30.01 in 10.0 mi SSE 9.2 mph - N/A   Clear
3:16 AM 37.4 °F 30.8 °F 32.0 °F 81% 30.01 in 10.0 mi SSE 9.2 mph - N/A   Clear
3:35 AM 37.4 °F 30.3 °F 32.0 °F 81% 30.00 in 10.0 mi South 10.4 mph - N/A   Clear
3:40 AM 37.4 °F 30.3 °F 32.0 °F 81% 30.00 in 10.0 mi South 10.4 mph - N/A   Clear
3:58 AM 39.2 °F 32.0 °F 32.0 °F 75% 29.99 in 10.0 mi SSE 11.5 mph - N/A   Clear
4:15 AM 37.4 °F 30.3 °F 32.0 °F 81% 29.99 in 10.0 mi SSE 10.4 mph - N/A   Clear
4:35 AM 39.2 °F 32.5 °F 32.0 °F 75% 29.99 in 10.0 mi SSE 10.4 mph - N/A   Clear
4:36 AM 39.2 °F 32.5 °F 32.0 °F 75% 29.99 in 10.0 mi SSE 10.4 mph - N/A   Clear
4:55 AM 39.2 °F 32.5 °F 32.0 °F 75% 29.98 in 10.0 mi SSE 10.4 mph - N/A   Clear
4:56 AM 39.2 °F 32.5 °F 32.0 °F 75% 29.98 in 10.0 mi SSE 10.4 mph - N/A   Clear
5:18 AM 39.2 °F 32.5 °F 32.0 °F 75% 29.98 in 10.0 mi SSE 10.4 mph - N/A   Clear
5:37 AM 41.0 °F 33.5 °F 33.8 °F 76% 29.97 in 10.0 mi SSE 13.8 mph - N/A   Clear
5:56 AM 42.8 °F 35.4 °F 33.8 °F 70% 29.97 in 10.0 mi SSE 15.0 mph - N/A   Clear
6:16 AM 42.8 °F 35.8 °F 33.8 °F 70% 29.97 in 10.0 mi SSE 13.8 mph - N/A   Clear
6:35 AM 42.8 °F 35.4 °F 32.0 °F 66% 29.96 in 10.0 mi South 15.0 mph - N/A   Clear
6:57 AM 42.8 °F 35.1 °F 32.0 °F 66% 29.96 in 10.0 mi South 16.1 mph - N/A   Clear
7:16 AM 42.8 °F 35.4 °F 32.0 °F 66% 29.96 in 10.0 mi South 15.0 mph - N/A   Clear
7:35 AM 42.8 °F 35.8 °F 32.0 °F 66% 29.96 in 10.0 mi South 13.8 mph - N/A   Clear
7:55 AM 42.8 °F 35.1 °F 32.0 °F 66% 29.95 in 10.0 mi South 16.1 mph 21.9 mph N/A   Clear
7:56 AM 42.8 °F 35.1 °F 32.0 °F 66% 29.95 in 10.0 mi South 16.1 mph 21.9 mph N/A   Clear
8:19 AM 42.8 °F 35.1 °F 32.0 °F 66% 29.96 in 10.0 mi SSE 16.1 mph - N/A   Clear
8:36 AM 42.8 °F 35.8 °F 33.8 °F 70% 29.96 in 10.0 mi SSE 13.8 mph - N/A   Clear
8:56 AM 46.4 °F 39.2 °F 33.8 °F 62% 29.95 in 10.0 mi South 18.4 mph 24.2 mph N/A   Clear
9:15 AM 46.4 °F 39.0 °F 32.0 °F 57% 29.95 in 10.0 mi South 19.6 mph - N/A   Clear
9:16 AM 46.4 °F 39.2 °F 32.0 °F 57% 29.95 in 10.0 mi South 18.4 mph - N/A   Clear
9:35 AM 46.4 °F 39.5 °F 32.0 °F 57% 29.95 in 10.0 mi South 17.3 mph 24.2 mph N/A   Clear
9:39 AM 46.4 °F 39.2 °F 32.0 °F 57% 29.95 in 10.0 mi South 18.4 mph 24.2 mph N/A   Clear
9:58 AM 46.4 °F 39.0 °F 32.0 °F 57% 29.95 in 10.0 mi South 19.6 mph 23.0 mph N/A   Clear
10:35 AM 46.4 °F 39.5 °F 32.0 °F 57% 29.95 in 10.0 mi South 17.3 mph - N/A   Clear
10:36 AM 46.4 °F 39.8 °F 32.0 °F 57% 29.95 in 10.0 mi South 16.1 mph - N/A   Clear
10:55 AM 48.2 °F - 32.0 °F 54% 29.95 in 10.0 mi SSW 18.4 mph 24.2 mph N/A   Clear
11:18 AM 48.2 °F - 33.8 °F 58% 29.95 in 10.0 mi South 16.1 mph 21.9 mph N/A   Clear
11:37 AM 48.2 °F - 33.8 °F 58% 29.94 in 10.0 mi South 17.3 mph - N/A   Clear
11:56 AM 48.2 °F - 33.8 °F 58% 29.93 in 10.0 mi South 17.3 mph 20.7 mph N/A   Clear
12:15 PM 50.0 °F - 33.8 °F 54% 29.91 in 10.0 mi South 16.1 mph - N/A   Clear
12:16 PM 50.0 °F - 33.8 °F 54% 29.91 in 10.0 mi South 16.1 mph - N/A   Clear
12:35 PM 51.8 °F - 33.8 °F 50% 29.91 in 10.0 mi South 18.4 mph 21.9 mph N/A   Clear
12:40 PM 51.8 °F - 33.8 °F 50% 29.90 in 10.0 mi South 17.3 mph 21.9 mph N/A   Clear
12:57 PM 51.8 °F - 33.8 °F 50% 29.90 in 10.0 mi South 17.3 mph - N/A   Clear
1:15 PM 51.8 °F - 33.8 °F 50% 29.90 in 10.0 mi South 16.1 mph - N/A   Clear
1:35 PM 50.0 °F - 33.8 °F 54% 29.89 in 10.0 mi South 16.1 mph - N/A   Clear
1:36 PM 50.0 °F - 33.8 °F 54% 29.89 in 10.0 mi South 16.1 mph - N/A   Clear
1:55 PM 50.0 °F - 33.8 °F 54% 29.90 in 10.0 mi South 11.5 mph - N/A   Clear
1:56 PM 50.0 °F - 33.8 °F 54% 29.90 in 10.0 mi South 10.4 mph - N/A   Clear
2:19 PM 51.8 °F - 33.8 °F 50% 29.90 in 10.0 mi South 10.4 mph - N/A   Clear
2:36 PM 51.8 °F - 33.8 °F 50% 29.91 in 10.0 mi SSW 11.5 mph - N/A   Clear
2:56 PM 51.8 °F - 33.8 °F 50% 29.90 in 10.0 mi SSW 12.7 mph - N/A   Clear
3:15 PM 51.8 °F - 33.8 °F 50% 29.90 in 10.0 mi SSW 8.1 mph - N/A   Clear
3:16 PM 51.8 °F - 33.8 °F 50% 29.90 in 10.0 mi SW 6.9 mph - N/A   Clear
3:35 PM 50.0 °F - 33.8 °F 54% 29.91 in 10.0 mi SSW 8.1 mph - N/A   Clear
3:39 PM 50.0 °F - 33.8 °F 54% 29.91 in 10.0 mi SSW 8.1 mph - N/A   Clear
3:58 PM 48.2 °F - 33.8 °F 58% 29.91 in 10.0 mi SSW 8.1 mph - N/A   Scattered Clouds
4:15 PM 48.2 °F - 33.8 °F 58% 29.91 in 10.0 mi SSW 6.9 mph - N/A   Clear
4:35 PM 46.4 °F 44.3 °F 33.8 °F 62% 29.91 in 10.0 mi South 4.6 mph - N/A   Clear
4:36 PM 46.4 °F 44.3 °F 33.8 °F 62% 29.91 in 10.0 mi South 4.6 mph - N/A   Clear
4:55 PM 46.4 °F 44.3 °F 33.8 °F 62% 29.91 in 10.0 mi South 4.6 mph - N/A   Clear
5:19 PM 44.6 °F 41.4 °F 33.8 °F 66% 29.92 in 10.0 mi South 5.8 mph - N/A   Clear
5:37 PM 44.6 °F 41.4 °F 32.0 °F 61% 29.93 in 10.0 mi South 5.8 mph - N/A   Clear
5:56 PM 44.6 °F 42.2 °F 33.8 °F 66% 29.93 in 10.0 mi SSW 4.6 mph - N/A   Scattered Clouds
6:15 PM 44.6 °F - 33.8 °F 66% 29.93 in 10.0 mi Calm Calm - N/A   Scattered Clouds
6:16 PM 44.6 °F - 33.8 °F 66% 29.93 in 10.0 mi Calm Calm - N/A   Scattered Clouds
6:35 PM 44.6 °F 42.2 °F 33.8 °F 66% 29.93 in 10.0 mi SW 4.6 mph - N/A   Drizzle
6:40 PM 44.6 °F 43.1 °F 33.8 °F 66% 29.94 in 10.0 mi SW 3.5 mph - N/A Rain Light Rain
6:57 PM 44.6 °F 42.2 °F 35.6 °F 71% 29.95 in 10.0 mi WSW 4.6 mph - N/A Rain Light Rain
7:15 PM 44.6 °F 43.1 °F 35.6 °F 71% 29.94 in 10.0 mi SW 3.5 mph - N/A Rain Light Rain
7:35 PM 42.8 °F - 37.4 °F 81% 29.94 in 10.0 mi Calm Calm - N/A Rain Light Rain
7:55 PM 42.8 °F 41.1 °F 37.4 °F 81% 29.95 in 10.0 mi WSW 3.5 mph - 0.02 in Rain Rain
7:56 PM 42.8 °F 41.1 °F 37.4 °F 81% 29.95 in 10.0 mi West 3.5 mph - N/A Rain Rain
8:19 PM 42.8 °F 40.1 °F 39.2 °F 87% 29.95 in 10.0 mi West 4.6 mph - 0.01 in Rain Rain
8:36 PM 42.8 °F 40.1 °F 39.2 °F 87% 29.95 in 10.0 mi West 4.6 mph - 0.01 in Rain Rain
8:56 PM 42.8 °F 38.6 °F 39.2 °F 87% 29.95 in 10.0 mi West 6.9 mph - N/A   Drizzle
9:15 PM 42.8 °F 38.0 °F 39.2 °F 87% 29.95 in 10.0 mi WNW 8.1 mph - N/A   Drizzle
9:35 PM 42.8 °F 37.5 °F 39.2 °F 87% 29.95 in 10.0 mi WNW 9.2 mph - N/A Rain Light Rain
9:39 PM 42.8 °F 37.5 °F 39.2 °F 87% 29.95 in 10.0 mi WNW 9.2 mph - 0.01 in Rain Light Rain
9:58 PM 42.8 °F 38.0 °F 39.2 °F 87% 29.96 in 10.0 mi WNW 8.1 mph - N/A Rain Light Rain
10:15 PM 42.8 °F 38.6 °F 39.2 °F 87% 29.95 in 10.0 mi WNW 6.9 mph - N/A Rain Light Rain
10:35 PM 42.8 °F 39.3 °F 39.2 °F 87% 29.96 in 10.0 mi West 5.8 mph - 0.01 in   Light Drizzle
10:36 PM 42.8 °F 39.3 °F 39.2 °F 87% 29.96 in 10.0 mi West 5.8 mph - 0.01 in   Light Drizzle
10:55 PM 42.8 °F 38.6 °F 39.2 °F 87% 29.95 in 10.0 mi West 6.9 mph - 0.01 in   Overcast
11:18 PM 42.8 °F 39.3 °F 39.2 °F 87% 29.95 in 10.0 mi West 5.8 mph - N/A   Overcast
11:36 PM 42.8 °F 38.6 °F 39.2 °F 87% 29.95 in 10.0 mi West 6.9 mph - N/A   Overcast
11:55 PM 42.8 °F 38.0 °F 39.2 °F 87% 29.95 in 10.0 mi WNW 8.1 mph - N/A   Overcast
11:56 PM 42.8 °F 38.0 °F 39.2 °F 87% 29.95 in 10.0 mi WNW 8.1 mph - N/A   Overcast